Hourly Data Report for October 26, 2012

All times are specified in Local Standard Time (LST). Add 1 hour to adjust for Daylight Saving Time where and when it is observed.

ST LEONARD CS
NEW BRUNSWICK

47°09'28.050" N
67°49'55.014" W
245.00 m
810I001
71019
WIY

Download Data

Hourly Data (October 2012)
Hourly Data Report for October 26, 2012
Temp Definition
°C
Dew Point Temp Definition
°C
Rel Hum Definition
%
Wind Dir Definition
10's deg

Wind Spd Definition
km/h
Visibility Definition
km
Stn Press Definition
kPa
Hmdx Definition


Wind Chill Definition


Weather Definition


TIME
00:00 -1.7 -4.2 83   0   99.45     LegendNANA
01:00 -1.7 -4.0 84   0   99.43     LegendNANA
02:00 -1.7 -4.3 82 6 2   99.41   -2 LegendNANA
03:00 -1.9 -4.0 86   0   99.41     LegendNANA
04:00 -1.6 -3.8 85 12 2   99.38   -2 LegendNANA
05:00 0.3 -3.5 76   0   99.43     LegendNANA
06:00 0.7 -3.2 75 7 2   99.39     LegendNANA
07:00 2.8 -2.9 66 16 4   99.37     LegendNANA
08:00 3.4 -2.7 64 16 2   99.35     LegendNANA
09:00 6.9 -2.6 51   0   99.38     LegendNANA
10:00 8.5 -2.6 45 13 7   99.37     LegendNANA
11:00 10.6 -1.9 42 17 6   99.33     LegendNANA
12:00 12.6 -1.0 39 13 6   99.27     LegendNANA
13:00 14.2 0.9 40 14 6   99.21     LegendNANA
14:00 15.0 0.1 36 14 6   99.16     LegendNANA
15:00 15.4 0.1 35 12 6   99.13     LegendNANA
16:00 15.4 0.3 36 14 6   99.11     LegendNANA
17:00 14.4 1.4 41 16 4   99.11     LegendNANA
18:00 11.6 1.4 50 13 7   99.07     LegendNANA
19:00 11.0 0.0 47 14 6   99.08     LegendNANA
20:00 8.4 1.2 60   0   99.12     LegendNANA
21:00 5.9 1.7 74 12 7   99.07     LegendNANA
22:00 6.3 2.0 74   0   99.06     LegendNANA
23:00 5.3 1.9 79   0   99.04     LegendNANA

Notes on Data Quality.

Legend

  • E = Estimated
  • M = Missing
  • NA = Not Available
  • ‡ = Partner data that is not subject to review by the National Climate Archives
Date modified: